Location: Montamat
(43.4852°N, 0.8444°E)
Time: 20:57:28
(UTC+00:00)

Cosmos 1933 - Pass Details

Date: 14 May 2026
Orbit: 508 x 512 km, 82.5° (Epoch: 7 June)

Event Time Altitude Azimuth Distance (km) Brightness Sun altitude
Exits shadow 21:36:35 26° 221° (SW) 1,039 4.6 -20.3°
Maximum altitude 21:38:22 46° 281° (WNW) 691 4.1 -20.5°
Drops below altitude 10° 21:42:04 10° 357° (N) 1,742 6.7 -20.9°
Sets 21:44:16 0° 3° (N) 2,635 7.7 -21.1°
